Weather reports worldwide

Advertisment
Logan Botanic Garden, United Kingdom (99193): temperature & dewpoint: 10.06.2019 12:00:00 - 16.06.2019 12:00:00 (BST)Logan Botanic Garden, United Kingdom (99193): temperature -20cm: 10.06.2019 12:00:00 - 16.06.2019 12:00:00 (BST)Logan Botanic Garden, United Kingdom (99193): precipitation: 10.06.2019 12:00:00 - 16.06.2019 12:00:00 (BST)
Date & Time tt [°C] td [°C] tt -20cm [°C] rr [mm]
16.06.2019 12:00:00 13,3 10,3 - 0,0
16.06.2019 11:00:00 13,1 10,3 - 0,0
16.06.2019 10:00:00 12,3 9,8 8,0 0,0
16.06.2019 09:00:00 12,2 8,5 - 0,0
16.06.2019 08:00:00 12,0 9,2 - 0,0
16.06.2019 07:00:00 11,4 9,7 - 0,0
16.06.2019 06:00:00 10,8 9,7 - 0,0
16.06.2019 05:00:00 10,8 9,5 - 0,0
16.06.2019 04:00:00 11,1 9,2 - 0,0
16.06.2019 03:00:00 10,4 9,8 - 0,0
16.06.2019 02:00:00 10,6 9,5 - 0,0
16.06.2019 01:00:00 11,0 9,7 - 0,0
16.06.2019 00:00:00 11,2 9,7 - 0,0
15.06.2019 23:00:00 11,3 9,6 - 0,0
15.06.2019 22:00:00 11,4 9,4 - 0,0
15.06.2019 21:00:00 11,4 9,2 - 0,0
15.06.2019 20:00:00 12,0 9,4 - 0,0
15.06.2019 19:00:00 12,0 9,7 - 0,0
15.06.2019 18:00:00 12,1 9,7 - 0,0
15.06.2019 17:00:00 12,8 10,5 - 0,0
15.06.2019 16:00:00 11,6 10,6 - 0,0
15.06.2019 15:00:00 12,2 10,6 - 0,0
15.06.2019 14:00:00 13,6 11,1 - 0,0
15.06.2019 13:00:00 13,2 10,6 - 0,0
15.06.2019 12:00:00 13,8 11,2 - 0,0
15.06.2019 11:00:00 12,0 10,8 - 0,2
15.06.2019 10:00:00 11,6 10,7 5,7 0,2
15.06.2019 09:00:00 11,8 11,1 - 1,0
15.06.2019 08:00:00 11,4 10,9 - 0,2
15.06.2019 07:00:00 11,1 10,6 - 0,4
15.06.2019 06:00:00 10,8 10,2 - 2,2
15.06.2019 05:00:00 10,4 10,0 - 4,6
15.06.2019 04:00:00 10,6 9,9 - 1,8
15.06.2019 03:00:00 11,0 10,6 - 1,6
15.06.2019 02:00:00 11,1 10,6 - 0,6
15.06.2019 01:00:00 11,0 10,0 - 0,4
15.06.2019 00:00:00 11,1 10,7 - 1,4
14.06.2019 23:00:00 11,4 10,7 - 0,2
14.06.2019 22:00:00 11,6 10,5 - 0,0
14.06.2019 21:00:00 11,8 10,3 - 0,0
14.06.2019 20:00:00 11,5 10,0 - 0,2
14.06.2019 19:00:00 10,6 9,5 - 1,2
14.06.2019 18:00:00 11,0 9,5 - 0,8
14.06.2019 17:00:00 12,5 9,0 - 0,0
14.06.2019 16:00:00 13,2 7,7 - 0,0
14.06.2019 15:00:00 12,6 7,7 - 0,0
14.06.2019 14:00:00 12,4 7,5 - 0,0
14.06.2019 13:00:00 10,8 7,3 - 0,0
14.06.2019 12:00:00 11,8 7,8 - 0,0
14.06.2019 11:00:00 11,8 7,3 - 0,0
14.06.2019 10:00:00 10,8 6,9 4,0 0,0
14.06.2019 09:00:00 10,2 6,3 - 0,0
14.06.2019 08:00:00 9,2 5,9 - 0,0
14.06.2019 07:00:00 8,7 6,5 - 0,0
14.06.2019 06:00:00 7,1 5,8 - 0,0
14.06.2019 05:00:00 6,8 5,0 - 0,0
14.06.2019 04:00:00 7,6 5,3 - 0,0
14.06.2019 03:00:00 8,5 5,7 - 0,0
14.06.2019 02:00:00 8,5 5,2 - 0,0
14.06.2019 01:00:00 9,0 5,8 - 0,0
14.06.2019 00:00:00 8,9 5,9 - 0,0
13.06.2019 23:00:00 9,1 5,6 - 0,0
13.06.2019 22:00:00 9,2 5,5 - 0,0
13.06.2019 21:00:00 9,4 5,5 - 0,0
13.06.2019 20:00:00 9,8 6,0 - 0,0
13.06.2019 19:00:00 9,7 6,1 - 0,0
13.06.2019 18:00:00 10,3 7,3 - 0,0
13.06.2019 17:00:00 10,8 7,1 - 0,0
13.06.2019 16:00:00 10,3 6,3 - 0,0
13.06.2019 15:00:00 10,3 7,0 - 0,0
13.06.2019 14:00:00 10,0 7,2 - 0,0
13.06.2019 13:00:00 10,3 8,0 - 0,0
13.06.2019 12:00:00 11,6 6,5 - 0,0
13.06.2019 11:00:00 11,3 7,7 - 0,0
13.06.2019 10:00:00 10,3 6,9 13,7 0,0
13.06.2019 09:00:00 10,5 8,0 - 0,2
13.06.2019 08:00:00 9,5 7,9 - 0,2
13.06.2019 07:00:00 9,4 8,1 - 0,8
13.06.2019 06:00:00 9,4 8,1 - 1,8
13.06.2019 05:00:00 9,3 8,4 - 1,6
13.06.2019 04:00:00 9,5 8,4 - 1,4
13.06.2019 03:00:00 10,1 8,7 - 1,0
13.06.2019 02:00:00 11,4 8,4 - 0,0
13.06.2019 01:00:00 11,7 8,0 - 0,0
13.06.2019 00:00:00 12,1 8,2 - 0,0
12.06.2019 23:00:00 12,4 8,6 - 0,0
12.06.2019 22:00:00 12,5 8,7 - 0,0
12.06.2019 21:00:00 12,7 8,8 - 0,0
12.06.2019 20:00:00 12,8 8,5 - 0,0
12.06.2019 19:00:00 13,1 8,3 - 0,0
12.06.2019 18:00:00 13,1 8,1 - 0,0
12.06.2019 17:00:00 13,2 7,6 - 0,0
12.06.2019 16:00:00 13,3 7,2 - 0,0
12.06.2019 15:00:00 13,6 7,2 - 0,0
12.06.2019 14:00:00 13,3 8,3 - 0,0
12.06.2019 13:00:00 12,4 7,7 - 0,0
12.06.2019 12:00:00 11,4 7,1 - 0,0
12.06.2019 11:00:00 11,0 6,4 - 0,0
12.06.2019 10:00:00 10,2 6,7 14,4 0,0
12.06.2019 09:00:00 10,3 6,3 - 0,0
12.06.2019 08:00:00 10,2 6,1 - 0,0
12.06.2019 07:00:00 10,3 6,2 - 0,0
12.06.2019 06:00:00 10,2 6,5 - 0,0
12.06.2019 05:00:00 10,3 6,5 - 0,0
12.06.2019 04:00:00 10,4 6,9 - 0,0
12.06.2019 03:00:00 11,4 8,1 - 0,0
12.06.2019 02:00:00 11,8 8,3 - 0,0
12.06.2019 01:00:00 11,8 8,2 - 0,0
12.06.2019 00:00:00 12,0 8,4 - 0,0
11.06.2019 23:00:00 12,3 8,1 - 0,0
11.06.2019 22:00:00 13,0 8,0 - 0,0
11.06.2019 21:00:00 13,6 7,7 - 0,0
11.06.2019 20:00:00 13,7 7,3 - 0,0
11.06.2019 19:00:00 14,2 6,6 - 0,0
11.06.2019 18:00:00 14,5 6,4 - 0,0
11.06.2019 17:00:00 15,4 6,1 - 0,0
11.06.2019 16:00:00 14,5 5,8 - 0,0
11.06.2019 15:00:00 13,2 8,3 - 0,0
11.06.2019 14:00:00 14,0 7,8 - 0,0
11.06.2019 13:00:00 14,1 5,9 - 0,0
11.06.2019 12:00:00 15,3 6,5 - 0,0
11.06.2019 11:00:00 13,9 7,2 - 0,2
11.06.2019 10:00:00 12,8 7,4 12,2 0,0
11.06.2019 09:00:00 12,1 7,5 - 0,0
11.06.2019 08:00:00 10,9 7,9 - 0,0
11.06.2019 07:00:00 10,1 8,7 - 0,0
11.06.2019 06:00:00 8,1 7,0 - 0,0
11.06.2019 05:00:00 7,8 7,3 - 0,0
11.06.2019 04:00:00 8,1 6,8 - 0,0
11.06.2019 03:00:00 9,7 8,0 - 0,0
11.06.2019 02:00:00 10,4 9,2 - 0,0
11.06.2019 01:00:00 10,0 8,2 - 0,0
11.06.2019 00:00:00 11,1 9,4 - 0,0
10.06.2019 23:00:00 11,2 9,0 - 0,0
10.06.2019 22:00:00 12,2 9,2 - 0,0
10.06.2019 21:00:00 12,1 9,4 - 0,2
10.06.2019 20:00:00 15,3 7,8 - 0,0
10.06.2019 19:00:00 15,0 7,9 - 0,0
10.06.2019 18:00:00 15,3 8,9 - 0,0
10.06.2019 17:00:00 15,2 8,7 - 0,0
10.06.2019 16:00:00 15,2 10,0 - 0,0
10.06.2019 15:00:00 15,0 10,7 - 0,0
10.06.2019 14:00:00 15,1 10,2 - 0,0
10.06.2019 13:00:00 13,0 9,4 - 0,0
10.06.2019 12:00:00 14,0 9,6 - 0,0

tt = temperature
td = dewpoint
tt -20cm = temperature -20cm
rr = precipitation

Next stations